Location: Gradaro
(45.0833°N, 10.8833°E)
Time: 23:38:25
(UTC+00:00)

Cosmos 2263 Rocket - Pass Details

Date: 21 April 2021
Orbit: 824 x 848 km, 71.0° (Epoch: 15 May)

Event Time Altitude Azimuth Distance (km) Brightness Sun altitude
Exits shadow 20:51:50 22° 69° (ENE) 1,718 3.6 -24.2°
Drops below altitude 10° 20:54:26 10° 46° (NE) 2,433 4.6 -24.5°
Sets 20:57:10 0° 35° (NE) 3,372 5.5 -24.8°
